Flag for U.S.A. Weather past 2 weeks in Springfield, Massachusetts, U.S.A.

Now
70 °F

Scattered clouds.


Feels Like: 75 °F
Forecast: 53 / 82 °F
Wind: 5 mph from Northwest

Location: Barnes Municipal Airport

Current Time: Aug 28, 2015 at 8:59:01 PM

Latest Report: Aug 28, 2015 at 7:53 PM


Visibility: 10 mi

Pressure: 30.14 "Hg

Humidity: 64%

Dew point: 57 °F

Location of SpringfieldLocation

Historic Weather in Springfield — Graph

°F

Springfield temperature yesterday

Maximum temperature yesterday: 77 °F (at 12:53 PM)
Minimum temperature yesterday: 56 °F (at 5:53 AM)
Average temperature yesterday: 67 °F

Past Weeks' High & Low Weather Summary

 TemperatureHumidityPressure
High93 °F (Aug 17, 3:53 PM)97% (Aug 14, 6:00 AM)30.17 "Hg (Aug 14, 6:00 AM)
Low52 °F (Aug 14, 6:00 AM)36% (Aug 17, 4:55 PM)29.78 "Hg (Aug 25, 3:53 PM)
Average73 °F74%30.02 "Hg
* Reported Aug 13 7:53 PM — Aug 28 7:53 PM, Springfield, Weather by CustomWeather, © 2015

Note: Actual official high and low records may vary slightly from our data, if they occured in-between our weather recording intervals... More about our weather records

Advertising

Springfield weather history for previous 24 hours

 ConditionsComfort  
Time TempWeatherWind HumidityBarometerVisibility
7:53 PM
Fri, Aug 28
70 °FScattered clouds.5 mph64%30.14 "Hg10 mi
6:53 PM74 °FScattered clouds.6 mph56%30.12 "Hg10 mi
5:53 PM77 °FSunny.5 mph45%30.12 "Hg10 mi
4:53 PM79 °FPartly sunny.No wind42%30.11 "Hg10 mi
3:53 PM76 °FPassing clouds.3 mph47%30.12 "Hg10 mi
2:53 PM80 °FPartly sunny.N/A41%30.14 "Hg10 mi
1:53 PM76 °FScattered clouds.3 mph43%30.15 "Hg10 mi
12:53 PM75 °FMostly cloudy.7 mph47%30.16 "Hg10 mi
11:53 AM75 °FPartly sunny.5 mph45%30.17 "Hg10 mi
10:53 AM72 °FSunny.6 mph55%30.17 "Hg10 mi
9:53 AM70 °FSunny.7 mph57%30.17 "Hg10 mi
8:53 AM65 °FSunny.6 mph70%30.17 "Hg10 mi
7:53 AM61 °FSunny.6 mph83%30.16 "Hg10 mi
6:53 AM58 °FClear.5 mph87%30.15 "Hg10 mi
5:53 AM57 °FClear.3 mph87%30.13 "Hg10 mi
4:53 AM56 °FClear.3 mph90%30.13 "Hg10 mi
3:53 AM54 °FClear.No wind97%30.12 "Hg10 mi
2:53 AM55 °FClear.No wind96%30.11 "Hg10 mi
1:53 AM56 °FClear.No wind93%30.11 "Hg10 mi
12:53 AM59 °FClear.No wind90%30.11 "Hg10 mi
11:53 PM
Thu, Aug 27
62 °FClear.5 mph78%30.11 "Hg10 mi
10:53 PM64 °FClear.3 mph73%30.09 "Hg10 mi
9:53 PM65 °FClear.No wind70%30.09 "Hg10 mi
8:53 PM67 °FClear.No wind68%30.07 "Hg10 mi
Weather by CustomWeather, © 2015

See weather overviewHow to use our weather pages